EW6103 Weather Reports


time (UTC)temp
F
wind
direction
speed
knots
gust
knots
rain 1hr
in
rain 24hr
in
rain mn
in
humidity
%
barometer
mb
20220627204008 75 0 0.9 1.7 0.00 0.00 0.00 67 1013.2
20220627203007 75 135 0.9 1.7 0.00 0.00 0.00 68 1013.2
20220627202008 75 90 0.0 0.9 0.00 0.00 0.00 68 1013.0
20220627201008 76 0 0.9 1.7 0.00 0.00 0.00 69 1013.0
20220627200007 75 90 0.0 1.7 0.00 0.00 0.00 74 1013.3
20220627195008 75 45 0.0 0.9 0.00 0.00 0.00 73 1013.2
20220627194007 75 0 0.0 0.9 0.00 0.00 0.00 73 1013.4
20220627193009 77 45 0.0 0.0 0.00 0.00 0.00 68 1013.3
20220627191008 79 90 0.9 1.7 0.00 0.00 0.00 62 1012.9
20220627185008 80 90 0.0 1.7 0.00 0.00 0.00 62 1012.8
20220627184007 81 90 0.9 1.7 0.00 0.00 0.00 62 1012.4
20220627183008 81 90 0.9 2.6 0.00 0.00 0.00 61 1012.4
20220627182008 82 90 0.9 2.6 0.00 0.00 0.00 60 1012.4
20220627175006 83 135 0.9 2.6 0.00 0.00 0.00 59 1012.1
20220627174007 84 90 1.7 3.5 0.00 0.00 0.00 57 1012.1
20220627173007 85 0 0.9 3.5 0.00 0.00 0.00 57 1011.8
20220627172008 86 135 1.7 3.5 0.00 0.00 0.00 54 1011.8
20220627171008 87 180 0.9 2.6 0.00 0.00 0.00 51 1011.7
20220627165006 89 90 3.5 5.2 0.00 0.00 0.00 47 1011.5
20220627164008 90 180 3.5 6.1 0.00 0.00 0.00 45 1011.6
20220627163008 91 45 3.5 6.1 0.00 0.00 0.00 44 1011.5
20220627162006 90 180 3.5 6.1 0.00 0.00 0.00 44 1011.7
20220627161006 91 135 3.5 7.0 0.00 0.00 0.00 45 1011.6
20220627155006 91 180 3.5 7.0 0.00 0.00 0.00 44 1011.4
20220627154007 91 180 4.3 9.6 0.00 0.00 0.00 43 1011.5
20220627153008 92 135 3.5 7.8 0.00 0.00 0.00 44 1011.3
20220627151008 91 0 4.3 9.6 0.00 0.00 0.00 46 1011.5
20220627150007 91 135 4.3 7.8 0.00 0.00 0.00 46 1011.6
20220627145007 92 90 3.5 8.7 0.00 0.00 0.00 45 1011.6
20220627144008 91 180 4.3 8.7 0.00 0.00 0.00 46 1011.7
20220627143007 92 180 3.5 7.8 0.00 0.00 0.00 46 1011.8
20220627142006 91 135 4.3 9.6 0.00 0.00 0.00 45 1011.8
20220627141009 92 135 3.5 7.0 0.00 0.00 0.00 46 1011.9
20220627135007 92 180 3.5 8.7 0.00 0.00 0.00 45 1011.9
20220627133008 91 180 3.5 8.7 0.00 0.00 0.00 45 1011.9
20220627132006 90 135 3.5 7.0 0.00 0.00 0.00 47 1012.1
20220627131008 90 180 5.2 9.6 0.00 0.00 0.00 46 1012.1
20220627125011 91 135 3.5 7.8 0.00 0.00 0.00 47 1012.0
20220627124007 92 135 3.5 4.3 0.00 0.00 0.00 47 1012.1
20220627123008 91 135 3.5 6.1 0.00 0.00 0.00 47 1012.2
20220627121008 91 180 4.3 7.8 0.00 0.00 0.00 47 1012.3
20220627120008 91 180 4.3 7.0 0.00 0.00 0.00 50 1012.4
20220627115008 89 90 3.5 7.0 0.00 0.00 0.00 50 1012.7
20220627113008 90 180 3.5 7.0 0.00 0.00 0.00 50 1012.8
20220627111007 89 135 3.5 9.6 0.00 0.00 0.00 50 1012.8
20220627110008 89 180 3.5 7.8 0.00 0.00 0.00 50 1013.0
20220627104006 89 90 5.2 10.4 0.00 0.00 0.00 51 1013.2
20220627103008 87 180 4.3 9.6 0.00 0.00 0.00 51 1013.1
20220627101008 88 180 3.5 7.8 0.00 0.00 0.00 52 1013.0
20220627100006 87 0 3.5 7.8 0.00 0.00 0.00 50 1013.0
20220627093007 88 90 3.5 9.6 0.00 0.00 0.00 50 1013.2
20220627092006 87 180 4.3 7.8 0.00 0.00 0.00 52 1013.4
20220627084008 85 45 4.3 8.7 0.00 0.00 0.00 55 1013.5
20220627083008 84 135 3.5 8.7 0.00 0.00 0.00 55 1013.5
20220627082008 85 90 3.5 7.8 0.00 0.00 0.00 55 1013.6
20220627081006 83 0 4.3 7.8 0.00 0.00 0.00 56 1013.6
20220627075007 83 90 3.5 5.2 0.00 0.00 0.00 57 1013.7
20220627074007 83 90 3.5 9.6 0.00 0.00 0.00 57 1013.8
20220627073007 82 90 3.5 5.2 0.00 0.00 0.00 57 1013.7
20220627072007 82 135 3.5 5.2 0.00 0.00 0.00 57 1013.8
20220627071007 82 90 3.5 7.0 0.00 0.00 0.00 58 1013.8
20220627065007 80 90 3.5 6.1 0.00 0.00 0.00 60 1014.1
20220627063008 78 135 3.5 7.8 0.00 0.00 0.00 58 1014.2
20220627062006 78 90 2.6 7.0 0.00 0.00 0.00 61 1014.2
20220627061009 78 135 2.6 3.5 0.00 0.00 0.00 61 1014.1
20220627060008 76 135 1.7 4.3 0.00 0.00 0.00 59 1014.2
20220627055007 76 135 2.6 4.3 0.00 0.00 0.00 60 1014.1
20220627054008 75 0 1.7 3.5 0.00 0.00 0.00 63 1014.2
20220627053007 74 90 1.7 3.5 0.00 0.00 0.00 63 1014.1
20220627052008 74 90 0.9 2.6 0.00 0.00 0.00 69 1014.3
20220627051006 72 90 0.9 3.5 0.00 0.00 0.00 70 1014.2
20220627050008 72 90 0.0 1.7 0.00 0.00 0.00 71 1014.4
20220627045007 70 90 0.9 3.5 0.00 0.00 0.00 75 1014.3
20220627044007 68 45 0.9 2.6 0.00 0.00 0.00 78 1014.5
20220627043008 67 0 0.0 1.7 0.00 0.00 0.00 81 1014.6
20220627041008 63 0 0.0 0.9 0.00 0.00 0.00 90 1015.0
20220627040007 61 0 0.0 1.7 0.00 0.00 0.00 92 1015.1
20220627035007 61 0 0.0 1.7 0.00 0.00 0.00 92 1015.2
20220627034008 60 0 0.0 1.7 0.00 0.00 0.00 93 1015.1
20220627033007 59 0 0.0 1.7 0.00 0.00 0.00 93 1015.0
20220627031007 59 0 0.0 1.7 0.00 0.00 0.00 93 1014.9
20220627030008 59 0 0.0 0.0 0.00 0.00 0.00 93 1014.8
20220627024006 59 0 0.0 0.9 0.00 0.00 0.00 93 1014.9
20220627023007 59 180 0.0 0.9 0.00 0.00 0.00 93 1014.8
20220627022006 59 180 0.0 0.9 0.00 0.00 0.00 93 1014.9
20220627021007 59 45 0.0 0.0 0.00 0.00 0.00 93 1014.9
20220627015007 59 45 0.0 0.0 0.00 0.00 0.00 92 1014.9
20220627013007 60 45 0.0 0.0 0.00 0.00 0.00 92 1015.0
20220627012008 60 45 0.0 0.0 0.00 0.00 0.00 92 1015.0
20220627011007 59 45 0.0 0.0 0.00 0.00 0.00 92 1015.0
20220627010008 59 180 0.0 0.0 0.00 0.00 0.00 92 1014.9
20220627005007 60 0 0.0 1.7 0.00 0.00 0.00 92 1014.9
20220627004006 60 0 0.0 0.0 0.00 0.00 0.00 91 1014.7
20220627002008 60 0 0.0 0.0 0.00 0.00 0.00 91 1014.9
20220627000006 61 0 0.0 0.0 0.00 0.00 0.00 89 1014.8
20220626234007 61 0 0.0 0.0 0.00 0.00 0.00 89 1014.8
20220626233008 61 0 0.0 0.0 0.00 0.00 0.00 89 1014.8
20220626232008 62 0 0.0 0.0 0.00 0.00 0.00 89 1014.9
20220626230007 62 0 0.0 0.0 0.00 0.00 0.00 89 1015.1
20220626225007 62 0 0.0 0.0 0.00 0.00 0.00 90 1015.0
20220626223007 63 0 0.0 0.0 0.00 0.00 0.00 90 1015.0
20220626222007 64 0 0.0 0.0 0.00 0.00 0.00 89 1015.0
20220626221007 64 0 0.0 0.0 0.00 0.00 0.00 89 1015.0
20220626220007 64 0 0.0 0.0 0.00 0.00 0.00 90 1015.1
20220626215007 64 0 0.0 0.0 0.00 0.00 0.00 89 1015.1
20220626212007 65 45 0.0 0.0 0.00 0.00 0.00 87 1015.0
20220626211008 66 45 0.0 0.0 0.00 0.00 0.00 85 1015.0